GFSNIL_prec_precacc_057.txt.gz
Total_Precipitation_Accumulation
0.00 0.00 0.00 0.00 0.00 0.00 0.00 0.00 0.00 0.00 0.00 0.00 0.01 0.00 0.01 0.02 0.01 0.01 0.00 0.01 0.01 0.00
0.00 0.00 0.00 0.00 0.00 0.00 0.00 0.00 0.00 0.00 0.00 0.00 0.00 0.00 0.00 0.00 0.01 0.02 0.01 0.00 0.01 0.00
0.00 0.00 0.00 0.00 0.00 0.00 0.00 0.00 0.00 0.00 0.00 0.00 0.00 0.00 0.00 0.00 0.00 0.00 0.00 0.00 0.00 0.00
0.00 0.00 0.00 0.00 0.00 0.00 0.00 0.00 0.00 0.00 0.00 0.00 0.00 0.00 0.00 0.00 0.00 0.00 0.00 0.00 0.00 0.00
0.00 0.00 0.00 0.01 0.01 0.00 0.00 0.00 0.00 0.00 0.00 0.00 0.00 0.00 0.00 0.00 0.00 0.00 0.00 0.00 0.00 0.00
0.00 0.00 0.00 0.01 0.02 0.01 0.00 0.00 0.00 0.00 0.00 0.00 0.00 0.00 0.00 0.00 0.00 0.00 0.00 0.00 0.00 0.00
0.00 0.00 0.03 0.09 0.06 0.01 0.01 0.01 0.02 0.02 0.01 0.00 0.00 0.00 0.01 0.01 0.01 0.01 0.02 0.05 0.07 0.04
0.00 0.04 0.17 0.27 0.34 0.23 0.16 0.10 0.04 0.02 0.00 0.00 0.00 0.01 0.00 0.02 0.03 0.09 0.10 0.10 0.12 0.09
0.00 0.04 0.14 0.37 0.73 0.41 0.23 0.16 0.15 0.09 0.04 0.02 0.02 0.03 0.01 0.03 0.14 0.16 0.20 0.17 0.14 0.13
0.00 0.07 0.13 0.15 0.22 0.26 0.33 0.31 0.14 0.05 0.03 0.03 0.08 0.27 0.13 0.18 0.15 0.18 0.19 0.15 0.15 0.13
0.00 0.04 0.10 0.12 0.13 0.12 0.10 0.05 0.05 0.10 0.16 0.15 0.15 0.17 0.15 0.12 0.09 0.10 0.11 0.17 0.17 0.13
0.00 0.01 0.05 0.06 0.05 0.05 0.02 0.02 0.05 0.24 0.39 0.25 0.19 0.19 0.17 0.16 0.07 0.09 0.16 0.20 0.14 0.16
0.01 0.01 0.00 0.00 0.02 0.06 0.13 0.17 0.10 0.09 0.13 0.15 0.18 0.23 0.16 0.19 0.14 0.14 0.14 0.15 0.13 0.15
0.02 0.01 0.01 0.05 0.17 0.24 0.24 0.11 0.03 0.07 0.29 0.28 0.19 0.26 0.15 0.15 0.12 0.11 0.11 0.15 0.20 0.20

GFSNIL_prec_precacc_063.txt.gz
Total_Precipitation_Accumulation
0.00 0.00 0.00 0.00 0.00 0.00 0.00 0.00 0.00 0.00 0.00 0.01 0.04 0.04 0.06 0.03 0.02 0.02 0.00 0.01 0.01 0.00
0.00 0.00 0.00 0.00 0.00 0.00 0.00 0.00 0.00 0.00 0.00 0.00 0.00 0.01 0.03 0.01 0.04 0.07 0.03 0.00 0.01 0.00
0.00 0.00 0.00 0.00 0.00 0.00 0.00 0.00 0.00 0.00 0.00 0.00 0.00 0.00 0.01 0.00 0.01 0.02 0.02 0.00 0.00 0.00
0.00 0.00 0.00 0.00 0.00 0.00 0.00 0.00 0.00 0.00 0.00 0.00 0.00 0.00 0.00 0.00 0.01 0.01 0.01 0.00 0.00 0.00
0.00 0.00 0.00 0.01 0.01 0.00 0.00 0.00 0.00 0.00 0.00 0.00 0.00 0.00 0.00 0.00 0.00 0.00 0.00 0.00 0.00 0.00
0.00 0.00 0.00 0.01 0.02 0.01 0.00 0.00 0.00 0.00 0.00 0.00 0.00 0.00 0.00 0.00 0.00 0.00 0.00 0.00 0.00 0.00
0.00 0.00 0.03 0.09 0.06 0.01 0.01 0.01 0.02 0.02 0.01 0.00 0.00 0.00 0.01 0.01 0.01 0.01 0.02 0.05 0.07 0.04
0.00 0.04 0.17 0.27 0.34 0.23 0.16 0.10 0.04 0.02 0.00 0.00 0.00 0.01 0.00 0.02 0.03 0.09 0.10 0.10 0.12 0.09
0.00 0.04 0.14 0.37 0.73 0.41 0.23 0.16 0.15 0.09 0.04 0.02 0.02 0.03 0.01 0.03 0.14 0.16 0.20 0.17 0.14 0.13
0.00 0.07 0.13 0.15 0.22 0.26 0.33 0.31 0.14 0.05 0.03 0.03 0.08 0.27 0.13 0.18 0.15 0.18 0.19 0.15 0.15 0.13
0.00 0.04 0.10 0.12 0.13 0.12 0.10 0.05 0.05 0.10 0.16 0.15 0.15 0.17 0.15 0.12 0.09 0.10 0.11 0.17 0.17 0.13
0.00 0.01 0.05 0.06 0.05 0.05 0.02 0.02 0.05 0.24 0.39 0.25 0.19 0.19 0.17 0.16 0.07 0.09 0.16 0.20 0.14 0.16
0.01 0.01 0.00 0.00 0.02 0.06 0.13 0.17 0.10 0.09 0.13 0.15 0.18 0.23 0.16 0.19 0.14 0.14 0.14 0.15 0.13 0.15
0.02 0.01 0.01 0.05 0.17 0.24 0.24 0.11 0.03 0.07 0.29 0.28 0.19 0.26 0.15 0.15 0.12 0.11 0.11 0.15 0.20 0.20

GFSNIL_prec_precacc_069.txt.gz
Total_Precipitation_Accumulation
0.00 0.00 0.00 0.00 0.00 0.00 0.00 0.00 0.00 0.00 0.00 0.01 0.04 0.04 0.06 0.03 0.02 0.02 0.00 0.01 0.01 0.00
0.00 0.00 0.00 0.00 0.00 0.00 0.00 0.00 0.00 0.00 0.00 0.00 0.00 0.01 0.03 0.01 0.04 0.07 0.03 0.00 0.01 0.00
0.00 0.00 0.00 0.00 0.00 0.00 0.00 0.00 0.00 0.00 0.01 0.00 0.00 0.00 0.01 0.00 0.01 0.02 0.02 0.00 0.00 0.00
0.00 0.00 0.00 0.00 0.00 0.00 0.00 0.00 0.00 0.00 0.00 0.00 0.00 0.00 0.00 0.00 0.01 0.01 0.01 0.00 0.00 0.00
0.00 0.00 0.00 0.01 0.01 0.00 0.00 0.00 0.00 0.00 0.00 0.00 0.00 0.00 0.00 0.00 0.00 0.00 0.00 0.00 0.00 0.00
0.00 0.00 0.00 0.01 0.02 0.01 0.00 0.00 0.00 0.00 0.00 0.00 0.00 0.00 0.00 0.00 0.00 0.00 0.00 0.00 0.00 0.00
0.00 0.00 0.03 0.09 0.06 0.01 0.01 0.01 0.02 0.02 0.01 0.00 0.00 0.00 0.01 0.01 0.01 0.01 0.02 0.05 0.07 0.04
0.00 0.04 0.17 0.27 0.34 0.23 0.16 0.10 0.04 0.02 0.00 0.00 0.00 0.01 0.00 0.02 0.03 0.09 0.10 0.10 0.12 0.09
0.00 0.04 0.14 0.37 0.73 0.41 0.23 0.16 0.15 0.09 0.04 0.02 0.02 0.03 0.01 0.03 0.14 0.16 0.20 0.17 0.14 0.13
0.01 0.07 0.13 0.15 0.22 0.26 0.33 0.31 0.14 0.05 0.03 0.03 0.08 0.27 0.13 0.18 0.15 0.18 0.19 0.15 0.15 0.13
0.00 0.05 0.11 0.12 0.13 0.12 0.10 0.05 0.05 0.10 0.16 0.15 0.15 0.17 0.15 0.12 0.09 0.10 0.11 0.17 0.17 0.13
0.00 0.01 0.05 0.06 0.05 0.05 0.02 0.02 0.05 0.24 0.39 0.25 0.19 0.19 0.17 0.16 0.07 0.09 0.16 0.20 0.14 0.16
0.05 0.04 0.01 0.00 0.02 0.07 0.14 0.17 0.10 0.09 0.13 0.15 0.18 0.23 0.16 0.19 0.14 0.14 0.14 0.15 0.13 0.15
0.11 0.13 0.04 0.05 0.17 0.24 0.24 0.11 0.03 0.07 0.29 0.28 0.19 0.26 0.15 0.15 0.12 0.11 0.11 0.15 0.20 0.20

GFSNIL_prec_precacc_072.txt.gz
Total_Precipitation_Accumulation
0.00 0.00 0.00 0.00 0.00 0.00 0.00 0.00 0.00 0.00 0.00 0.02 0.06 0.04 0.06 0.03 0.02 0.02 0.00 0.01 0.01 0.00
0.00 0.00 0.00 0.00 0.00 0.00 0.00 0.00 0.00 0.01 0.00 0.00 0.03 0.02 0.03 0.01 0.04 0.08 0.03 0.00 0.01 0.00
0.00 0.00 0.00 0.00 0.00 0.00 0.00 0.00 0.00 0.01 0.04 0.04 0.03 0.00 0.01 0.00 0.01 0.02 0.02 0.00 0.00 0.00
0.00 0.00 0.00 0.00 0.00 0.00 0.00 0.00 0.00 0.00 0.00 0.01 0.02 0.02 0.04 0.01 0.01 0.01 0.01 0.00 0.00 0.00
0.00 0.00 0.00 0.01 0.01 0.00 0.00 0.00 0.00 0.00 0.00 0.00 0.00 0.00 0.00 0.00 0.00 0.00 0.00 0.00 0.00 0.00
0.00 0.00 0.00 0.01 0.02 0.01 0.00 0.00 0.00 0.00 0.00 0.00 0.00 0.00 0.00 0.00 0.00 0.00 0.00 0.00 0.00 0.00
0.00 0.00 0.03 0.09 0.06 0.01 0.01 0.01 0.02 0.02 0.01 0.00 0.00 0.00 0.01 0.01 0.01 0.01 0.02 0.05 0.07 0.04
0.00 0.04 0.17 0.27 0.34 0.23 0.16 0.10 0.04 0.02 0.00 0.00 0.00 0.01 0.00 0.02 0.03 0.09 0.10 0.10 0.12 0.09
0.00 0.04 0.14 0.37 0.73 0.41 0.23 0.16 0.15 0.09 0.04 0.02 0.02 0.03 0.01 0.03 0.14 0.16 0.20 0.17 0.14 0.13
0.01 0.07 0.13 0.15 0.22 0.26 0.33 0.31 0.14 0.05 0.03 0.03 0.08 0.27 0.13 0.18 0.15 0.18 0.19 0.15 0.15 0.13
0.01 0.05 0.12 0.12 0.13 0.12 0.10 0.05 0.05 0.10 0.16 0.15 0.15 0.17 0.15 0.12 0.09 0.10 0.11 0.17 0.17 0.13
0.00 0.01 0.05 0.07 0.07 0.07 0.02 0.02 0.05 0.24 0.39 0.25 0.19 0.19 0.17 0.16 0.07 0.09 0.16 0.20 0.14 0.16
0.05 0.06 0.03 0.03 0.07 0.13 0.15 0.17 0.10 0.09 0.13 0.15 0.18 0.23 0.16 0.19 0.14 0.14 0.14 0.15 0.13 0.15
0.12 0.17 0.10 0.11 0.30 0.39 0.32 0.15 0.03 0.07 0.29 0.28 0.19 0.26 0.15 0.15 0.12 0.11 0.11 0.15 0.20 0.20

GFSNIL_prec_precacc_075.txt.gz
Total_Precipitation_Accumulation
0.00 0.00 0.00 0.00 0.00 0.00 0.00 0.00 0.00 0.00 0.02 0.06 0.09 0.04 0.06 0.03 0.02 0.03 0.01 0.01 0.04 0.01
0.00 0.00 0.00 0.00 0.00 0.00 0.00 0.00 0.00 0.01 0.00 0.01 0.04 0.03 0.03 0.02 0.08 0.11 0.04 0.00 0.01 0.00
0.00 0.00 0.00 0.00 0.00 0.00 0.00 0.00 0.00 0.01 0.04 0.07 0.05 0.01 0.02 0.00 0.01 0.03 0.02 0.00 0.00 0.00
0.00 0.00 0.00 0.00 0.00 0.00 0.00 0.00 0.00 0.00 0.00 0.01 0.03 0.02 0.05 0.02 0.01 0.01 0.01 0.00 0.00 0.00
0.00 0.00 0.00 0.01 0.01 0.00 0.00 0.00 0.00 0.00 0.00 0.00 0.00 0.00 0.00 0.01 0.02 0.03 0.01 0.00 0.00 0.00
0.00 0.00 0.00 0.01 0.02 0.01 0.00 0.00 0.00 0.00 0.00 0.00 0.00 0.00 0.00 0.01 0.03 0.01 0.00 0.00 0.00 0.00
0.00 0.00 0.03 0.09 0.06 0.01 0.01 0.01 0.02 0.02 0.01 0.00 0.00 0.00 0.01 0.01 0.01 0.01 0.02 0.05 0.07 0.04
0.00 0.04 0.17 0.27 0.34 0.23 0.16 0.10 0.04 0.02 0.00 0.00 0.00 0.01 0.00 0.02 0.03 0.09 0.10 0.10 0.12 0.09
0.00 0.04 0.14 0.37 0.73 0.41 0.23 0.16 0.15 0.09 0.04 0.02 0.02 0.03 0.01 0.03 0.14 0.16 0.20 0.17 0.14 0.13
0.01 0.07 0.13 0.15 0.22 0.26 0.33 0.31 0.14 0.05 0.03 0.03 0.08 0.27 0.13 0.18 0.15 0.18 0.19 0.15 0.15 0.13
0.01 0.05 0.12 0.12 0.13 0.12 0.10 0.05 0.05 0.10 0.16 0.15 0.15 0.17 0.15 0.12 0.09 0.10 0.11 0.17 0.17 0.13
0.00 0.01 0.05 0.07 0.07 0.07 0.02 0.02 0.05 0.24 0.39 0.25 0.19 0.19 0.17 0.16 0.07 0.09 0.16 0.20 0.14 0.16
0.05 0.06 0.04 0.04 0.07 0.14 0.15 0.18 0.10 0.09 0.13 0.15 0.18 0.23 0.16 0.19 0.14 0.14 0.14 0.15 0.13 0.15
0.13 0.17 0.12 0.12 0.31 0.41 0.34 0.17 0.04 0.07 0.29 0.28 0.19 0.26 0.15 0.15 0.12 0.11 0.11 0.15 0.20 0.20